Weather in Svetlyy

Russia / Mari El Republic     56°33′05″N   47°50′16″E
temp.,
°C
wind,
m/s
gust,
m/s
humid.,
%
clouds,
%
prec.,
mm/h
press.,
hPa
HPBL,
m
25 february, thu
thu2500:00−23ssw229893 0.0 103420
03:00−24s239891 0.0 103364
06:00−22s3794100 0.0 1030233
09:00−19sse4992100 0.0 1027324
12:00−16sse51195100 0.4 1023476
15:00−15sse61194100 1.4 1020618
18:00−14sse51095100 1.1 1018665
21:00−14sse4994100 1.9 1017501
26 february, fri
fri2600:00−15se4995100 0.4 1015400
03:00−15se4895100 0.8 1015341
06:00−16se389696 0.1 1013274
09:00−14se479597 0.3 1013325
12:00−10se4894100 0.1 1011402
15:00−9se51094100 0.3 1008434
18:00−9se61395100 1.4 1002443
21:00−7se61395100 5.9 997466
27 february, sat
sat2700:00−5se3696100 3.8 993218
03:000w41199100 6.6 993536
06:00−1wnw3898100 1.4 992440
09:00−5nne3597100 2.7 993191
12:00−7nne469597 0.5 994339
15:00−9nne599499 0.9 997498
18:00−10n51094100 0.9 999613
21:00−12n51192100 1.1 1002554
28 february, sun
sun2800:00−15n41094100 0.0 1003356
03:00−17nnw4109598 0.1 1005278
06:00−19nnw3109669 0.0 1007275
09:00−18n499366 0.0 1009374
12:00−14n489090 0.0 1011521
15:00−13n489095 0.1 1012638
18:00−16n3994100 0.0 1014267
21:00−18n399692 0.1 1017220
1 march, mon
mon100:00−20nnw36980 0.0 1018106
03:00−22nnw36980 0.0 1020114
06:00−23nnw33980 0.0 102278
09:00−19n35950 0.0 1023228
12:00−13nnw238744 0.0 1024388
15:00−11wnw239059 0.0 1023410
18:00−14wsw239785 0.0 102254
21:00−13sw389693 0.0 1019243